Theta_e
354 357 365 364 366 370 366 366 363 360 362 363 364 364 364 364 363 366 367 365 365 365 364 364 364 364 363 364 365 364 364 363 363 362 362 362 361 361 362 360 364 357 361
354 356 365 366 369 368 369 366 364 361 362 363 363 362 363 364 363 364 364 365 365 366 366 363 364 362 361 361 363 363 363 363 361 360 362 360 360 360 362 363 364 358 360
353 356 360 367 369 369 370 368 365 361 360 363 363 362 362 363 363 364 364 364 364 364 364 363 363 362 363 364 363 360 360 359 358 362 366 353 355 361 362 360 359 360 359
353 355 358 366 368 369 369 367 365 363 361 363 363 362 362 362 362 363 363 363 364 364 363 363 361 362 363 363 362 363 361 357 358 358 355 352 355 362 360 360 361 360 360
354 355 362 367 368 366 366 367 366 366 363 363 363 362 362 361 361 362 362 362 362 362 363 362 362 361 360 361 362 362 363 357 356 358 356 353 353 361 360 359 360 360 361
354 356 363 366 364 364 364 365 365 364 363 362 362 362 361 360 360 361 361 362 361 360 360 362 362 362 362 361 361 360 360 360 360 350 350 354 352 359 358 355 361 361 360
352 361 361 367 366 364 364 365 364 364 363 362 361 361 361 360 361 360 359 360 361 360 359 357 358 359 360 361 358 361 359 358 356 354 351 351 356 358 356 356 356 359 360
353 360 360 364 365 364 363 364 364 364 363 362 361 361 360 360 359 359 358 358 360 359 359 358 358 357 355 355 355 357 360 359 350 352 354 353 358 357 356 355 355 356 357
353 356 359 358 361 363 363 363 363 363 363 363 362 361 361 360 360 362 360 359 359 358 355 356 357 358 356 354 357 356 355 357 356 350 349 353 361 358 357 356 355 354 355
352 354 357 359 359 359 358 363 363 363 362 362 362 361 361 361 361 360 358 358 358 357 356 356 357 358 357 357 357 356 357 356 353 353 350 352 360 359 359 359 357 356 356
350 353 353 354 356 357 354 358 362 361 362 362 362 362 361 355 356 356 356 356 355 354 357 358 357 356 358 358 357 357 357 352 356 352 350 354 359 356 359 359 362 359 357
349 351 352 352 352 353 351 360 358 356 357 357 361 365 359 359 355 354 357 356 354 356 358 355 356 356 357 351 354 357 354 352 354 352 350 354 355 352 354 360 360 363 361
351 352 353 352 353 352 352 353 354 353 354 354 365 365 359 365 360 358 357 356 357 348 350 354 353 352 350 352 351 354 350 351 351 351 352 357 354 352 353 359 360 362 363
350 352 355 354 356 355 353 353 354 353 357 359 358 364 367 359 358 357 360 358 359 357 354 356 353 352 354 352 353 352 350 352 350 351 353 356 354 353 354 358 359 362 361
349 352 353 359 361 359 361 357 357 359 358 356 356 360 359 356 357 358 358 360 364 358 356 356 357 357 357 353 353 353 349 350 353 351 352 356 355 355 355 356 358 360 362
350 351 353 355 361 364 362 364 360 361 360 357 360 358 360 357 361 361 362 351 355 355 355 353 361 357 357 354 351 352 351 352 355 354 355 355 357 356 356 356 358 358 359
350 353 353 356 358 361 363 364 361 359 357 362 361 367 365 362 361 363 361 356 362 365 358 355 354 365 361 354 354 350 350 352 355 357 354 355 355 357 357 356 360 360 362
352 354 356 355 357 360 362 362 359 357 363 365 363 362 361 363 367 363 362 359 365 360 360 364 355 364 358 355 354 352 349 353 352 356 355 356 355 353 358 361 361 361 361
354 356 357 358 356 358 363 362 360 364 358 360 360 359 360 363 362 367 366 360 368 372 366 366 358 363 361 358 354 354 355 351 352 350 353 356 353 355 355 359 362 363 361
356 357 359 359 360 362 363 364 358 357 357 359 360 363 366 362 362 367 360 362 362 366 366 362 359 354 359 361 352 353 355 356 357 352 351 353 353 353 353 358 359 359 364
356 358 359 361 365 360 358 357 356 352 356 358 359 362 366 365 367 362 364 361 360 364 362 362 363 360 356 356 358 352 354 353 351 353 350 352 352 350 350 354 361 358 360
355 358 361 363 365 361 358 359 359 356 355 358 360 363 368 364 365 362 364 360 363 358 361 361 362 361 359 354 358 346 349 350 348 349 353 350 353 351 352 353 356 358 357
354 358 360 365 368 366 367 364 363 360 360 367 359 360 361 364 363 367 365 363 365 361 362 363 358 358 359 356 356 350 347 337 352 347 351 351 353 351 350 353 355 359 361
351 356 361 365 366 368 371 366 369 357 357 357 365 357 361 363 363 361 365 367 364 357 364 358 356 367 365 358 361 354 350 354 342 341 349 351 351 356 355 358 354 356 362
352 354 358 362 365 369 370 371 364 364 359 357 357 366 368 367 362 362 363 364 363 361 364 363 361 365 357 353 348 349 357 350 353 352 349 349 348 351 353 351 354 353 354
352 353 355 360 365 367 366 367 365 356 358 354 362 371 355 356 357 361 362 366 364 363 364 364 365 362 360 360 361 357 351 345 356 346 350 354 346 347 349 352 356 353 355
Wind_Speed
16 18 11 11 12 16 16 14 14 13 11 11 10 11 11 12 13 13 13 13 12 11 11 10 13 14 13 13 13 14 14 15 15 15 15 14 13 11 9 11 16 17 15
21 19 12 12 14 16 15 15 14 13 11 10 10 11 10 12 12 12 12 12 12 12 12 12 12 13 13 13 13 13 13 13 13 14 15 14 12 11 15 17 17 14 14
22 20 15 12 14 15 14 14 14 13 11 10 10 10 10 11 10 10 10 11 11 11 11 11 11 12 14 14 13 13 12 10 11 13 16 13 12 12 14 16 15 14 13
21 20 18 12 14 14 14 14 14 14 13 11 11 10 9 10 10 10 9 8 9 10 9 11 11 11 12 12 13 11 10 8 8 8 7 11 13 11 13 13 12 12 13
19 19 19 14 13 14 15 14 13 13 13 12 11 10 9 8 9 9 9 8 8 7 9 8 10 12 11 12 11 9 8 5 7 9 10 9 9 11 11 10 11 8 9
19 19 20 16 15 14 14 14 14 13 12 11 10 10 9 7 7 7 7 8 8 7 6 7 8 10 10 9 10 8 6 7 9 8 4 8 11 11 8 6 10 11 11
19 21 19 15 14 14 13 14 14 13 12 11 10 9 8 7 6 5 5 5 5 6 6 5 5 6 9 8 6 9 6 7 7 3 9 8 11 10 8 8 8 8 9
16 21 18 15 13 13 13 13 13 13 12 10 9 9 9 9 7 7 6 6 6 5 5 5 6 7 4 5 6 6 7 8 7 4 3 4 14 10 9 9 8 7 8
12 18 16 15 13 12 13 13 13 12 11 11 10 10 10 10 10 10 10 8 8 8 8 8 8 9 8 7 8 9 8 8 11 5 6 5 14 11 10 9 9 8 8
12 16 14 13 13 12 13 13 13 12 11 11 11 11 11 9 12 9 6 9 7 6 8 8 8 9 9 9 10 10 10 10 11 6 7 4 16 13 11 11 10 9 9
10 13 14 14 13 12 12 13 11 12 10 11 11 12 10 11 6 3 9 6 6 7 8 9 9 10 10 11 12 12 11 8 5 7 4 18 16 13 11 12 13 12 11
13 12 13 14 15 13 10 14 11 11 10 10 7 6 9 11 4 17 12 10 6 5 7 9 10 10 10 10 9 12 8 11 7 10 6 11 15 15 14 14 13 14 14
13 12 10 11 12 12 9 9 7 7 7 9 8 6 8 6 7 6 4 4 3 6 5 11 10 9 12 4 6 9 5 9 6 3 9 15 14 14 15 15 14 13 13
14 11 10 9 10 9 7 7 8 5 4 3 7 10 6 7 5 4 4 7 6 2 7 8 3 6 5 8 8 10 13 6 5 5 7 14 14 14 16 15 15 14 13
14 13 11 9 10 9 7 5 5 6 5 7 7 7 5 7 4 3 1 4 2 5 3 4 5 4 3 6 6 11 5 7 4 3 5 17 16 16 17 17 16 16 14
14 14 14 12 11 10 9 6 4 4 4 9 6 4 7 6 3 4 3 6 6 5 4 3 5 6 5 6 9 8 8 8 7 6 5 9 17 17 17 17 18 17 17
13 14 13 13 13 12 13 9 7 6 6 4 3 3 5 4 6 3 4 5 5 5 5 5 6 7 6 7 6 9 9 8 8 8 7 7 11 18 19 18 19 18 17
13 13 13 12 14 14 11 10 9 8 3 3 3 4 9 6 7 3 7 6 5 7 5 4 7 6 7 7 6 5 8 5 9 8 10 7 8 10 16 20 20 19 19
13 13 14 13 7 12 12 9 10 8 7 4 3 5 8 8 8 6 6 3 5 4 4 5 5 5 6 6 7 6 5 7 6 9 11 8 8 10 10 21 22 21 22
16 13 13 12 13 12 9 9 9 8 8 7 6 6 4 4 7 5 8 4 5 5 4 4 6 6 7 5 7 3 3 5 3 8 5 8 11 14 12 13 13 13 20
15 14 14 13 13 11 9 10 10 10 9 8 8 8 8 7 4 7 7 7 7 6 4 4 5 4 5 6 3 3 4 8 10 6 8 12 12 8 14 9 11 9 13
16 17 16 14 13 11 10 9 9 9 9 7 9 8 6 8 7 9 8 8 7 1 5 5 5 3 4 6 2 2 3 3 8 10 6 8 11 9 13 12 11 9 7
16 16 14 14 14 14 14 9 8 8 7 3 5 5 11 11 11 8 7 9 5 7 5 6 7 6 6 5 3 3 3 3 2 5 6 5 8 10 9 7 8 10 10
13 13 13 13 13 12 13 12 11 10 9 8 5 8 5 7 8 10 10 7 5 5 7 7 7 4 6 5 4 7 6 5 2 2 2 3 4 5 7 6 8 11 11
9 11 11 12 11 12 12 14 10 13 10 8 7 9 7 3 6 8 8 8 6 8 10 6 7 6 6 8 4 5 6 6 8 3 4 3 5 7 6 4 8 10 12
7 6 7 8 10 10 10 11 15 10 11 7 5 1 5 8 7 9 11 8 9 9 9 8 8 8 8 7 5 4 5 6 4 5 2 5 7 9 4 9 5 5 10
Wind_Direction
144 138 152 155 152 150 149 150 146 138 120 111 103 96 97 99 103 102 102 103 105 107 105 103 122 117 114 109 110 107 104 103 98 99 100 99 96 86 87 125 131 95 89
146 142 148 145 145 148 150 148 147 144 134 120 109 103 101 104 108 105 105 105 102 103 106 100 111 114 122 116 105 102 100 102 107 118 116 100 91 81 73 73 75 93 93
138 138 151 141 143 146 148 147 147 147 145 131 121 113 109 109 112 111 113 113 114 109 106 108 109 113 123 118 121 111 114 121 142 157 166 108 95 84 83 84 93 94 96
138 144 143 138 140 144 145 146 146 148 148 139 132 124 118 116 116 115 114 108 113 117 115 122 122 119 116 114 115 112 132 146 169 190 210 117 101 103 95 97 99 108 102
143 151 125 140 141 145 146 146 146 147 149 146 140 137 133 128 122 119 117 114 114 113 123 124 134 131 129 128 120 116 117 168 218 233 137 107 117 103 107 116 130 118 92
146 152 136 144 146 148 149 152 154 154 155 154 150 149 147 147 139 135 134 132 134 126 113 107 119 128 121 128 134 132 140 202 242 126 70 89 96 119 127 114 87 93 98
156 119 141 150 152 154 155 158 163 163 163 163 164 161 161 167 162 158 158 160 164 152 148 139 133 127 125 130 151 146 174 231 281 143 145 127 111 129 128 120 118 115 113
151 138 142 149 159 166 166 164 166 169 169 175 180 180 184 190 194 195 198 202 195 188 176 175 177 165 173 177 168 177 195 242 234 161 232 100 126 144 147 140 141 142 139
160 128 148 163 166 178 182 180 181 181 181 186 195 202 206 211 217 215 207 211 214 214 216 213 213 221 224 218 208 200 210 239 278 237 232 145 140 157 161 158 158 157 156
164 136 153 168 173 183 178 189 194 194 195 199 205 216 217 222 228 225 237 208 224 250 255 242 237 231 233 225 212 208 214 227 245 264 212 96 144 163 177 176 173 173 175
175 158 166 171 174 193 181 170 194 200 205 209 218 224 224 239 186 333 224 224 210 227 241 240 228 218 219 222 218 212 211 232 220 258 222 146 152 169 193 192 190 185 184
176 177 178 172 173 182 198 146 195 195 203 211 205 206 231 249 120 178 205 213 211 212 235 228 216 209 213 228 192 206 211 221 200 228 115 169 153 173 200 200 207 198 193
175 190 174 174 169 184 208 167 180 206 205 199 178 208 252 259 262 167 179 192 213 229 264 200 200 224 217 204 107 246 225 201 235 332 148 159 164 182 203 209 208 215 199
178 197 166 185 167 201 187 191 197 187 203 143 202 193 198 236 238 219 161 192 212 165 223 245 166 221 177 262 164 226 211 218 198 181 162 158 170 188 205 212 210 212 213
179 191 201 177 168 191 233 203 235 144 207 190 181 218 162 246 174 194 9 262 201 179 265 271 214 261 178 230 235 239 175 176 274 183 174 173 176 186 205 211 213 213 219
184 188 193 206 174 182 218 243 243 250 160 272 175 218 221 252 180 145 153 253 264 149 173 187 238 240 230 199 215 225 233 173 196 236 141 178 187 189 205 211 213 216 218
187 185 201 194 194 191 199 207 229 216 248 169 244 172 229 203 235 177 150 245 223 199 224 178 250 216 242 224 243 197 223 233 173 206 222 179 187 199 200 207 211 215 219
199 186 201 198 198 184 209 200 219 227 180 189 236 165 244 204 269 245 215 210 214 204 226 259 215 188 228 247 233 238 205 235 206 176 209 186 192 190 203 204 207 215 220
182 191 193 198 208 195 197 216 224 235 219 198 203 241 177 236 216 242 279 244 183 253 208 215 226 212 202 233 238 231 261 221 184 208 207 201 216 200 192 197 203 207 219
184 200 195 186 202 218 185 210 222 226 229 225 193 197 220 234 219 226 258 236 243 225 247 243 199 237 178 207 254 200 252 260 237 223 173 210 241 198 220 163 195 206 213
221 182 208 197 189 211 213 202 216 217 215 212 233 239 207 233 206 234 239 245 250 189 207 253 259 236 281 210 256 217 274 221 235 222 211 199 227 206 263 175 185 205 194
214 187 201 206 197 201 217 219 227 217 225 206 212 223 233 234 203 227 224 260 204 254 204 219 238 248 262 257 124 193 243 271 233 221 192 213 223 233 220 191 203 217 263
204 197 200 199 202 201 227 208 221 252 238 234 198 191 213 214 226 212 209 247 334 270 190 216 222 220 253 274 245 257 248 247 280 349 268 213 235 225 231 246 204 208 203
210 201 197 201 207 207 210 238 217 222 228 221 175 252 178 179 215 231 209 204 228 261 271 197 231 224 250 235 199 215 210 249 256 288 64 314 327 306 270 278 260 211 201
190 191 193 198 216 220 208 233 225 220 226 229 207 211 205 193 241 236 240 217 208 227 259 258 268 203 232 257 253 263 189 248 220 198 274 258 237 268 246 284 270 260 211
162 173 170 187 209 217 228 237 237 266 222 218 245 191 215 231 200 213 225 225 220 225 229 240 236 237 257 290 297 263 231 226 223 234 259 252 236 220 200 237 224 279 249